Regional Weather Roundup
Issued by NWS

Home | Current Version | Previous Version | Graphics & Text | Print | Product List | Glossary On
Versions: 1 2 3 4 5 6 7 8 9 10 11 12 13 14 15 16 17 18 19 20 21 22 23 24 25 26 27 28 29 30 31 32 33 34 35 36 37 38 39 40 41 42 43 44 45 46 47 48 49 50
754
ASUS43 KFSD 262010
RWRSD

WEATHER ROUNDUP FOR SOUTH DAKOTA
NATIONAL WEATHER SERVICE SIOUX FALLS SD
300 PM CDT THU APR 26 2018

NOTE: "FAIR" INDICATES FEW OR NO CLOUDS BELOW 12,000 FEET WITH NO
SIGNIFICANT WEATHER AND/OR OBSTRUCTIONS TO VISIBILITY.


SDZ001>005-009-010-012>017-262100-
NORTHWEST AND NORTH CENTRAL SOUTH DAKOTA

CITY           SKY/WX    TMP DP  RH WIND       PRES   REMARKS
BUFFALO          N/A     63  28  26 NW16G23   30.10
FAITH            N/A     62  30  29 NW16G28   30.14F
MOBRIDGE       SUNNY     65  29  25 NW16G22   30.08F
$$

SDZ012>016-024>037-041>051-057-063-072>074-262100-
SOUTHWEST AND SOUTH CENTRAL SOUTH DAKOTA

CITY           SKY/WX    TMP DP  RH WIND       PRES   REMARKS
RAPID CTY ARPT SUNNY     62  29  28 NW17      30.18F
PIERRE         SUNNY     64  27  24 NW23G30   30.12F
CUSTER         SUNNY     54  19  25 NW13G20   30.22S
ELLSWORTH AFB  SUNNY     61  30  31 NW13      30.18
PHILIP         SUNNY     64  28  25 NW16G24   30.15F
PINE RIDGE     MOSUNNY   62  29  28 N12G21    30.21F
SPEARFISH      FAIR      59  27  29 W13G22    30.21S
WINNER         FAIR      64  25  22 N17G28    30.15S
$$

SDZ004>011-016>023-039-040-262100-
NORTHEAST SOUTH DAKOTA

CITY           SKY/WX    TMP DP  RH WIND       PRES   REMARKS
ABERDEEN       SUNNY     63  27  25 NW18G30   30.09S
WATERTOWN      SUNNY     57  30  35 N26G32    30.05S
BROOKINGS      SUNNY     56  32  40 NW22G31   30.04R
SISSETON         N/A     61  31  32 N29G38    30.03S
$$

SDZ017-020-022-023-036>040-048>070-262100-
SOUTHEAST SOUTH DAKOTA

CITY           SKY/WX    TMP DP  RH WIND       PRES   REMARKS
SIOUX FALLS    SUNNY     60  30  32 N20G35    30.04S
HURON          SUNNY     61  29  29 N21G33    30.08F
CHAMBERLAIN    SUNNY     64  30  28 NW20G28   30.12F
MITCHELL       SUNNY     62  30  29 N28G39    30.10S
YANKTON        SUNNY     60  30  32 N26G32    30.06S
$$

ABBREVIATIONS USED IN REMARKS
   TC - TEMPERATURE IN CELSIUS
  WCI - WIND CHILL INDEX
   HX - HEAT INDEX
  VSB - VISIBILITY





USA.gov is the U.S. government's official web portal to all federal, state and local government web resources and services.